Theta_e
327 324 323 323 323 324 328 332 336 337 337 336 338 339 340 339 336 332 330 330 331 330 330 330 331 332 331 331 331 329 329 330 331 333 333 333 332 332 332 332 333 333 333
324 321 321 321 323 324 328 333 335 333 334 336 338 339 340 339 336 331 331 331 331 328 328 329 329 330 330 330 331 329 328 330 332 332 332 332 332 332 332 332 332 332 332
320 321 321 321 321 324 328 333 332 332 335 337 338 339 340 338 335 331 331 330 329 327 327 327 328 327 326 328 331 330 328 329 332 333 333 333 333 332 331 331 331 331 331
322 321 321 321 321 326 330 331 330 333 336 337 339 339 340 336 334 330 331 330 328 327 326 327 325 324 328 330 332 330 328 330 332 333 333 333 332 331 331 331 330 330 329
321 321 321 321 321 325 329 331 331 333 335 337 339 340 339 336 333 331 332 329 327 326 326 326 325 325 328 330 329 328 327 330 332 333 332 332 331 330 329 329 329 329 329
322 322 322 322 323 325 330 331 332 333 333 336 338 339 338 336 334 332 332 330 328 327 328 329 328 330 330 329 329 328 327 331 332 331 333 330 330 329 329 329 328 328 327
322 322 322 322 323 325 330 331 331 333 331 332 336 338 338 337 335 335 333 333 330 329 329 328 329 331 329 329 330 327 329 331 330 329 329 329 329 327 327 326 323 326 325
323 323 322 323 323 325 330 332 331 331 331 329 329 333 334 334 335 335 333 332 331 326 326 328 330 329 330 330 328 327 328 328 328 327 328 329 328 326 318 314 314 316 317
324 324 323 324 325 327 330 332 332 331 330 329 329 333 333 334 335 333 332 329 326 326 327 328 330 327 330 328 327 327 327 327 327 328 328 327 327 321 316 315 312 314 313
324 324 325 325 326 328 333 333 334 332 331 330 329 331 332 332 333 332 326 326 323 326 326 327 329 327 328 327 327 328 328 328 327 327 326 325 325 324 319 314 309 312 309
324 325 325 325 326 329 334 340 336 334 332 331 330 330 329 329 330 325 325 324 325 326 326 327 328 327 327 326 327 327 328 328 327 326 323 323 323 322 316 311 309 309 311
325 325 325 324 326 331 331 336 337 335 334 333 332 329 329 327 327 326 326 327 325 326 325 327 327 326 327 327 329 328 328 327 327 326 321 320 322 322 316 311 310 310 312
327 326 325 325 326 331 331 333 335 336 334 333 333 332 329 329 327 325 324 326 327 328 327 326 326 326 327 328 326 325 323 323 322 322 319 318 321 321 316 314 312 310 312
329 328 326 326 327 329 327 331 333 334 335 335 333 332 330 328 326 328 326 326 327 326 325 327 327 327 327 325 323 323 321 319 318 316 315 321 321 321 317 317 314 313 310
330 329 328 327 328 329 328 329 328 334 336 336 332 331 330 328 328 328 326 326 327 326 324 326 327 326 325 325 323 321 320 318 314 313 315 321 320 320 319 319 318 315 309
329 330 329 328 328 329 329 329 328 329 333 333 333 331 330 328 328 328 326 326 326 326 324 325 326 325 325 324 322 321 317 311 310 312 315 320 320 320 321 320 320 317 309
321 329 330 329 329 329 329 329 327 329 333 331 330 330 329 328 328 328 325 326 326 324 323 325 325 325 325 323 321 320 317 314 310 312 313 318 319 319 319 318 319 318 315
318 326 330 329 330 329 329 328 323 328 332 328 329 332 330 327 329 327 325 326 325 324 324 325 324 325 322 322 321 320 319 319 313 313 313 316 317 318 319 319 319 318 313
317 323 330 329 330 329 329 326 324 329 331 327 329 329 330 329 327 327 327 326 324 324 324 324 326 324 321 322 321 320 320 319 316 312 311 313 314 316 316 317 317 316 309
317 322 329 329 330 329 328 324 328 328 329 327 329 328 327 327 327 326 326 326 326 323 324 325 325 322 321 322 321 320 320 319 318 314 311 312 314 314 312 312 311 310 308
318 319 328 329 330 329 327 325 327 326 326 327 327 328 326 326 327 326 326 325 323 323 324 324 325 322 321 321 321 320 320 320 318 316 313 313 313 313 312 310 309 309 309
318 318 327 329 329 328 327 326 328 326 325 327 326 327 326 325 326 326 326 325 320 325 324 325 324 321 321 321 321 320 319 319 318 318 315 313 313 312 312 311 311 311 311
318 319 326 329 329 327 327 323 327 325 326 326 325 327 327 324 325 325 325 325 324 325 324 324 323 321 321 321 321 321 320 322 320 318 318 317 314 315 313 313 313 313 312
319 323 328 329 328 327 325 321 323 324 324 325 326 326 326 327 326 325 327 325 325 325 326 323 324 323 320 320 321 321 321 320 321 321 319 319 319 319 318 316 313 312 313
321 325 328 328 328 327 321 322 322 324 323 323 324 326 326 327 325 325 325 326 326 326 326 321 325 323 320 320 321 321 321 320 319 318 320 319 319 318 316 315 314 313 312
323 326 328 328 328 326 319 324 325 322 324 325 326 326 326 326 324 325 326 325 326 327 324 317 323 322 319 319 320 321 321 320 319 318 316 316 316 315 312 313 314 316 316
Wind_Speed
19 13 9 7 8 11 13 14 16 19 21 21 21 21 21 21 20 20 22 22 22 21 21 22 24 23 21 19 18 18 19 19 20 21 21 22 22 22 23 23 24 24 24
17 13 10 9 9 12 14 15 16 17 19 22 23 24 24 24 23 24 25 24 23 22 22 22 22 21 19 18 18 19 19 20 20 20 22 22 23 22 23 23 23 23 24
17 12 10 8 8 11 14 17 17 17 20 24 25 24 25 25 25 25 25 24 24 23 22 22 22 20 17 18 19 17 18 20 22 23 23 23 22 23 24 24 25 24 23
16 13 10 8 8 13 16 18 18 19 22 24 25 25 26 26 26 26 26 25 24 23 23 22 21 19 17 20 19 17 19 22 24 24 23 24 24 24 24 22 21 19 17
17 14 11 10 9 14 17 19 20 21 23 25 26 26 26 26 26 26 27 25 24 22 23 22 20 19 20 20 19 19 20 23 26 25 26 24 22 21 19 16 16 16 17
17 14 12 10 11 14 18 21 22 23 23 26 27 28 28 27 26 25 24 24 22 18 17 18 19 20 22 21 20 20 22 24 24 21 24 22 20 20 20 20 18 17 18
17 15 12 11 12 14 19 21 23 24 25 26 28 28 29 29 27 26 23 21 19 18 19 18 20 20 22 22 22 21 24 24 22 19 19 21 20 19 19 17 17 18 17
17 16 14 13 12 14 18 22 24 25 25 26 26 26 26 25 27 26 24 20 18 18 20 21 21 20 23 23 21 22 22 21 19 19 20 19 17 16 16 15 16 16 17
20 17 16 14 14 15 17 21 25 25 26 25 25 28 29 27 26 26 22 17 19 21 22 21 22 21 24 23 22 22 21 20 21 21 20 17 16 15 15 15 15 16 17
22 20 18 16 15 16 19 20 24 27 27 27 28 31 33 32 31 28 23 24 22 22 21 21 23 23 25 23 22 21 20 20 20 19 19 19 16 16 16 15 14 16 16
26 24 20 18 17 17 20 23 23 24 25 27 32 33 32 34 33 30 23 23 25 24 23 22 24 24 26 24 22 20 22 21 19 16 18 17 17 18 17 15 17 17 17
30 27 23 19 18 19 19 23 23 24 26 27 30 31 33 35 34 27 21 29 29 25 27 25 27 27 26 26 23 21 20 19 19 19 14 19 18 17 17 18 18 18 17
31 28 25 21 20 21 21 23 25 27 29 30 31 34 33 34 32 20 20 33 27 29 26 27 28 30 30 28 25 23 20 17 18 17 16 18 19 19 18 18 17 17 18
33 30 25 22 22 22 23 26 27 29 32 33 30 32 35 39 30 22 25 28 33 33 30 30 32 32 30 27 22 21 18 16 17 18 17 20 19 18 18 17 17 17 15
37 33 30 25 23 23 24 26 26 30 34 36 32 32 40 43 37 31 29 30 34 33 31 35 35 32 29 24 22 17 15 14 17 18 17 20 18 18 18 17 16 15 14
37 37 33 29 25 23 25 26 26 29 32 36 38 33 40 41 35 30 31 33 36 34 33 36 36 34 29 23 22 16 12 15 17 18 16 20 19 17 16 15 15 15 13
33 38 37 32 27 24 26 27 27 29 33 34 36 34 39 39 34 34 35 37 39 36 33 39 36 33 30 27 22 18 15 14 17 18 18 16 18 17 17 15 15 14 14
32 39 37 33 30 25 27 26 25 29 33 33 34 35 35 39 38 36 40 43 42 38 37 40 38 36 32 29 24 19 17 13 18 19 18 17 16 16 17 16 16 15 14
30 34 37 35 32 27 26 24 24 27 32 31 32 30 32 37 34 37 39 41 47 42 41 43 40 35 31 30 26 21 18 14 15 17 17 17 16 15 16 17 15 14 13
29 30 33 35 33 28 26 23 22 22 23 27 28 29 30 33 33 34 35 39 45 41 42 43 41 36 32 32 28 23 20 16 15 17 17 16 16 16 15 15 15 14 12
27 28 33 36 34 28 26 22 23 24 25 26 27 30 29 33 36 36 36 33 35 39 41 45 42 37 35 33 30 25 21 17 16 16 17 17 17 16 16 15 14 13 13
27 29 35 37 32 28 24 21 24 24 25 26 26 31 33 33 39 39 41 43 41 43 41 47 44 39 35 35 27 25 14 17 20 19 19 18 18 17 16 15 14 14 13
28 31 36 38 30 26 22 21 25 26 25 26 28 30 38 34 37 46 43 44 42 42 41 47 47 43 41 36 33 23 12 10 18 21 22 20 19 18 18 17 14 13 15
29 32 36 34 28 25 20 22 25 23 25 25 31 23 36 37 39 46 44 46 44 42 42 46 47 44 42 39 34 29 24 17 14 11 24 22 21 21 19 19 17 20 20
29 33 35 32 28 23 19 18 17 19 19 22 19 25 30 29 29 47 43 35 38 40 40 43 48 46 44 41 40 37 25 20 16 14 13 28 27 26 25 23 23 21 19
28 32 34 30 26 22 17 19 18 14 14 13 18 24 37 27 30 34 33 30 34 36 35 38 45 47 44 39 37 38 34 28 22 19 18 19 27 28 27 26 25 22 23
Wind_Direction
183 185 186 192 203 219 227 222 208 206 208 209 205 194 188 187 186 182 177 175 175 173 170 161 158 156 151 148 148 142 138 142 144 141 137 136 133 133 131 128 127 124 123
175 171 173 190 198 211 221 218 209 203 205 201 201 195 190 189 190 183 180 175 177 175 172 167 166 165 161 154 151 143 143 147 145 142 140 136 136 135 133 133 130 130 128
167 165 168 174 189 209 215 212 206 202 197 196 194 196 192 191 192 185 182 179 179 175 175 173 173 175 171 162 156 149 150 153 148 143 139 136 135 135 132 129 127 127 127
170 169 170 174 185 207 212 212 206 200 195 194 193 195 194 193 192 188 184 182 179 177 180 179 184 180 168 159 159 158 157 157 152 145 138 138 136 137 136 135 133 131 129
179 177 178 185 188 204 210 209 203 197 196 195 194 195 196 195 193 189 185 182 182 184 188 186 190 187 172 168 171 165 163 163 157 153 147 141 140 143 142 146 143 142 137
186 185 189 191 198 205 208 207 203 198 194 195 197 198 198 197 192 185 189 185 186 190 187 185 183 180 173 178 176 171 169 166 162 151 146 146 149 155 154 151 148 144 142
192 191 192 199 205 210 208 208 207 201 199 198 200 200 200 201 193 189 188 191 189 192 190 191 188 183 180 182 178 176 173 172 165 150 153 153 157 171 181 173 165 153 151
202 196 198 202 207 211 211 211 211 209 205 203 202 203 205 202 193 193 191 194 199 196 192 190 190 188 184 182 180 179 178 180 176 160 152 158 164 184 160 163 154 155 156
202 206 206 207 208 210 211 211 213 213 210 208 201 195 197 195 197 195 189 193 207 197 192 195 194 192 186 183 183 181 181 178 169 160 161 170 187 173 161 160 159 155 154
207 208 213 212 211 210 209 213 214 213 213 210 205 203 198 195 196 189 202 216 203 199 198 201 200 196 185 183 183 179 177 171 173 170 180 168 177 168 165 162 163 158 156
210 213 215 215 215 215 208 210 214 216 218 216 210 208 208 201 198 202 195 185 195 200 201 193 195 196 182 180 182 181 177 180 182 182 195 169 171 168 169 164 159 159 152
216 217 218 218 217 214 213 213 219 216 218 220 217 210 206 204 212 203 221 220 205 209 206 196 194 191 179 179 181 183 187 194 204 209 201 178 169 166 166 161 159 155 157
224 221 220 220 218 214 212 218 219 219 218 222 224 220 219 212 201 217 232 210 201 198 190 190 189 184 183 185 184 191 193 200 206 204 197 173 169 167 165 162 162 158 156
230 228 223 220 221 215 213 219 224 226 226 222 220 223 212 205 206 227 211 202 196 195 188 191 186 186 186 188 188 187 194 203 202 194 187 167 174 169 167 165 166 165 162
236 231 225 222 222 218 219 220 225 225 225 221 226 220 214 211 225 227 209 207 202 195 187 194 191 188 186 190 190 191 197 202 195 186 177 171 176 172 169 169 171 171 168
239 235 227 226 224 222 225 227 230 228 228 225 221 230 216 220 227 223 211 207 204 199 191 198 193 192 190 191 188 189 196 189 190 186 175 174 178 175 173 175 180 181 175
248 240 229 226 226 225 228 233 234 232 231 229 225 233 225 221 225 227 214 205 205 199 194 197 195 194 192 188 187 187 183 182 189 187 181 176 181 178 178 184 185 186 182
254 243 230 227 228 228 231 236 236 229 231 231 230 227 222 224 225 222 213 207 204 198 195 199 200 194 191 186 189 181 183 185 193 189 189 184 182 188 184 188 194 192 192
258 246 231 227 228 230 233 240 236 234 232 230 231 228 222 221 218 217 210 212 208 197 198 200 198 195 191 190 190 185 188 188 192 195 195 197 198 195 191 193 196 199 199
257 246 232 226 226 227 231 236 234 229 228 231 229 225 219 218 211 212 215 214 201 193 199 199 200 194 195 191 188 187 191 191 196 198 198 205 208 208 206 201 201 204 202
252 241 227 220 219 223 228 234 226 229 226 229 231 221 215 214 213 211 208 195 191 200 200 199 198 196 190 190 190 188 193 196 201 202 204 206 209 209 208 207 210 209 211
249 234 221 214 217 222 228 237 222 229 229 232 233 228 214 217 216 210 206 193 197 202 202 198 198 191 194 195 189 182 179 199 207 206 208 208 208 208 206 208 212 215 223
240 225 215 212 213 221 230 234 221 224 232 234 239 227 223 219 216 210 209 203 205 205 202 200 200 200 196 193 201 183 167 195 200 213 212 214 212 211 213 212 218 233 237
227 217 210 208 209 220 229 222 218 219 227 232 240 228 236 225 218 212 211 211 212 207 204 203 203 205 206 198 196 197 198 199 187 201 219 218 218 221 218 217 220 231 242
218 210 204 203 208 218 230 208 212 215 226 230 244 225 229 211 216 210 213 207 204 205 206 207 205 206 210 207 203 200 205 206 211 207 209 221 221 223 227 224 228 235 249
212 205 201 200 209 217 215 199 206 211 217 216 208 197 197 193 197 199 201 200 201 205 209 209 209 210 213 212 214 211 212 215 218 221 228 234 231 232 235 235 241 249 254